EW5657 Weather Reports


Display with metric or nautical units.
time (UTC)temp
F
wind
direction
speed
MPH
gust
MPH
rain 1hr
in
rain 24hr
in
rain mn
in
humidity
%
barometer
mb
20260505124717 60 256 0.0 2.0 0.00 0.00 0.00 73 1023.2
20260505124217 60 256 0.0 2.0 0.00 0.00 0.00 73 1023.2
20260505123717 60 256 0.0 1.0 0.00 0.00 0.00 73 1023.3
20260505123223 60 256 0.0 2.0 0.00 0.00 0.00 73 1023.3
20260505123216 60 256 0.0 3.0 0.00 0.00 0.00 73 1023.3
20260505122716 60 256 0.0 3.0 0.00 0.00 0.00 73 1023.3
20260505122341 60 256 0.0 2.0 0.00 0.00 0.00 73 1023.3
20260505121218 60 256 0.0 2.0 0.00 0.00 0.00 73 1023.3
20260505120716 60 256 0.0 2.0 0.00 0.00 0.00 72 1023.4
20260505120216 60 256 0.0 1.0 0.00 0.00 0.00 72 1023.3
20260505115715 60 256 0.0 2.0 0.00 0.00 0.00 72 1023.4
20260505115215 60 256 0.0 2.0 0.00 0.00 0.00 72 1023.4
20260505114715 60 256 0.0 2.0 0.00 0.00 0.00 73 1023.4
20260505114214 60 256 0.0 1.0 0.00 0.00 0.00 72 1023.4
20260505113713 60 256 0.0 5.0 0.00 0.00 0.00 72 1023.4
20260505113215 60 256 0.0 5.0 0.00 0.00 0.00 72 1023.3
20260505112723 60 269 0.0 4.0 0.00 0.00 0.00 71 1023.3
20260505112715 60 269 1.0 4.0 0.00 0.00 0.00 72 1023.3
20260505112213 60 270 0.0 4.0 0.00 0.00 0.00 72 1023.3
20260505111213 60 269 0.0 4.0 0.00 0.00 0.00 71 1023.4
20260505110712 60 269 0.0 3.0 0.00 0.00 0.00 70 1023.4
20260505110211 60 269 1.0 4.0 0.00 0.00 0.00 70 1023.4
20260505102211 61 262 0.0 2.0 0.00 0.00 0.00 71 1023.2
20260505101709 61 263 0.0 2.0 0.00 0.00 0.00 71 1023.3
20260505101209 61 263 0.0 3.0 0.00 0.00 0.00 71 1023.3
20260505100707 61 263 1.0 4.0 0.00 0.00 0.00 70 1023.3
20260505100207 61 263 0.0 4.0 0.00 0.00 0.00 70 1023.3
20260505095705 61 278 0.0 3.0 0.00 0.00 0.00 69 1023.2
20260505095206 61 278 0.0 3.0 0.00 0.00 0.00 69 1023.2
20260505094705 61 280 0.0 2.0 0.00 0.00 0.00 68 1023.2
20260505094205 61 281 0.0 2.0 0.00 0.00 0.00 67 1023.2
20260505093705 61 281 0.0 2.0 0.00 0.00 0.00 66 1023.2
20260505093205 61 281 1.0 6.0 0.00 0.00 0.00 65 1023.2
20260505092705 61 281 1.0 6.0 0.00 0.00 0.00 65 1023.2
20260505092213 61 278 2.0 6.0 0.00 0.00 0.00 65 1023.2
20260505092207 61 279 1.0 6.0 0.00 0.00 0.00 65 1023.2
20260505091205 61 274 3.0 6.0 0.00 0.00 0.00 65 1023.2
20260505090705 61 273 2.0 6.0 0.00 0.00 0.00 65 1023.2
20260505090205 61 268 1.0 6.0 0.00 0.00 0.00 65 1023.1
20260505085705 61 264 1.0 4.0 0.00 0.00 0.00 65 1023.1
20260505085206 61 264 1.0 6.0 0.00 0.00 0.00 65 1023.1
20260505084712 61 254 1.0 3.0 0.00 0.00 0.00 66 1023.0
20260505084705 61 263 2.0 6.0 0.00 0.00 0.00 65 1023.0
20260505084207 61 259 2.0 5.0 0.00 0.00 0.00 66 1023.0
20260505083205 61 254 1.0 3.0 0.00 0.00 0.00 67 1022.9
20260505082707 61 254 1.0 4.0 0.00 0.00 0.00 67 1022.9
20260505082213 60 251 0.0 2.0 0.00 0.00 0.00 69 1022.8
20260505082207 61 253 1.0 4.0 0.00 0.00 0.00 68 1022.9
20260505081831 60 251 0.0 2.0 0.00 0.00 0.00 70 1022.7
20260505080705 61 251 0.0 2.0 0.00 0.00 0.00 70 1022.6
20260505080207 61 251 0.0 0.0 0.00 0.00 0.00 70 1022.6
20260505075705 61 251 0.0 0.0 0.00 0.00 0.00 70 1022.5
20260505075210 61 251 0.0 0.0 0.00 0.00 0.00 70 1022.5
20260505075206 61 251 0.0 0.0 0.00 0.00 0.00 69 1022.5
20260505074829 61 251 0.0 1.0 0.00 0.00 0.00 69 1022.4
20260505074329 61 251 0.0 1.0 0.00 0.00 0.00 69 1022.4
20260505073207 61 251 0.0 1.0 0.00 0.00 0.00 70 1022.3
20260505072711 61 251 0.0 1.0 0.00 0.00 0.00 70 1022.3
20260505072707 61 251 0.0 1.0 0.00 0.00 0.00 70 1022.3
20260505071705 61 251 0.0 1.0 0.00 0.00 0.00 70 1022.3
20260505071211 61 251 0.0 2.0 0.00 0.00 0.00 70 1022.2
20260505071206 61 251 0.0 1.0 0.00 0.00 0.00 70 1022.2
20260505070205 61 251 0.0 2.0 0.00 0.00 0.00 70 1022.1
20260505065705 61 251 0.0 2.0 0.00 0.00 0.00 70 1022.1
20260505065205 61 251 0.0 2.0 0.00 0.00 0.00 70 1022.1
20260505064706 61 251 0.0 2.0 0.00 0.00 0.00 70 1022.0
20260505064205 61 251 0.0 2.0 0.00 0.00 0.00 70 1022.1
20260505063702 61 251 0.0 3.0 0.00 0.01 0.00 70 1022.0
20260505063203 61 251 0.0 3.0 0.00 0.01 0.00 69 1021.9
20260505062703 61 251 0.0 3.0 0.00 0.01 0.00 70 1021.9
20260505062205 61 250 0.0 3.0 0.00 0.01 0.00 70 1021.9
20260505061703 61 250 1.0 5.0 0.00 0.01 0.00 71 1021.9
20260505061210 61 252 1.0 4.0 0.00 0.01 0.00 70 1021.9
20260505061202 61 250 1.0 5.0 0.00 0.01 0.00 70 1021.9
20260505060830 61 256 0.0 2.0 0.00 0.01 0.00 69 1021.8
20260505060331 61 256 0.0 2.0 0.00 0.01 0.00 70 1021.8
20260505055832 61 256 1.0 3.0 0.00 0.01 0.00 69 1021.7
20260505054704 61 256 0.0 3.0 0.00 0.01 0.00 69 1021.7
20260505054200 61 256 1.0 4.0 0.00 0.01 0.00 68 1021.6
20260505053659 61 256 1.0 4.0 0.00 0.01 0.00 68 1021.6
20260505053158 61 256 1.0 3.0 0.00 0.01 0.00 68 1021.5
20260505052657 61 256 1.0 4.0 0.00 0.01 0.00 68 1021.5
20260505052157 62 257 1.0 5.0 0.00 0.01 0.00 68 1021.4
20260505051656 62 260 1.0 5.0 0.00 0.01 0.00 68 1021.4
20260505051202 62 262 2.0 7.0 0.00 0.01 0.00 68 1021.3
20260505051156 62 261 1.0 7.0 0.00 0.01 0.00 69 1021.4
20260505050202 62 237 2.0 6.0 0.00 0.01 0.00 68 1021.2
20260505050156 62 262 2.0 7.0 0.00 0.01 0.00 67 1021.3
20260505041654 62 272 2.0 5.0 0.00 0.01 0.00 67 1021.0
20260505041156 62 207 2.0 5.0 0.00 0.01 0.00 67 1021.0
20260505040656 62 212 2.0 8.0 0.00 0.01 0.00 66 1020.9
20260505040154 62 206 2.0 8.0 0.00 0.01 0.00 66 1020.9
20260505035652 62 244 1.0 5.0 0.00 0.01 0.00 67 1020.9
20260505035155 62 227 2.0 5.0 0.00 0.01 0.00 67 1020.8
20260505034652 62 224 2.0 5.0 0.00 0.01 0.00 67 1020.8
20260505034153 62 210 2.0 5.0 0.00 0.01 0.00 67 1020.8
20260505033652 62 240 2.0 5.0 0.00 0.01 0.00 67 1020.9
20260505033154 61 245 2.0 8.0 0.00 0.01 0.00 67 1020.9
20260505032652 62 202 1.0 8.0 0.00 0.01 0.00 67 1020.8
20260505032155 61 226 1.0 5.0 0.00 0.01 0.00 68 1020.9
20260505031653 61 224 2.0 5.0 0.00 0.01 0.00 67 1020.9
20260505031154 61 224 2.0 6.0 0.00 0.01 0.00 68 1020.9
20260505030652 61 203 2.0 6.0 0.00 0.01 0.00 67 1021.0
20260505030150 61 235 2.0 11.0 0.00 0.01 0.00 67 1020.9
20260505025650 61 212 2.0 11.0 0.00 0.01 0.00 67 1020.9
20260505025150 61 218 2.0 8.0 0.00 0.01 0.00 67 1021.0
20260505024652 61 208 2.0 8.0 0.00 0.01 0.00 67 1021.1
20260505024148 61 245 2.0 7.0 0.00 0.01 0.00 67 1021.1
20260505023651 61 246 2.0 9.0 0.00 0.01 0.00 67 1021.0
20260505023148 62 215 2.0 9.0 0.00 0.01 0.00 68 1021.1
20260505022652 61 207 2.0 8.0 0.00 0.01 0.00 67 1021.1
20260505022647 61 253 2.0 7.0 0.00 0.01 0.00 66 1021.1
20260505021644 62 253 2.0 7.0 0.00 0.01 0.00 66 1021.1
20260505021153 62 253 1.0 4.0 0.00 0.01 0.00 65 1021.2
20260505021148 62 223 1.0 4.0 0.00 0.01 0.00 66 1021.1
20260505020147 62 247 1.0 6.0 0.00 0.01 0.00 65 1021.2
20260505015643 62 248 2.0 6.0 0.00 0.01 0.00 65 1021.3
20260505015145 62 241 2.0 5.0 0.00 0.01 0.00 65 1021.3
20260505014650 61 313 2.0 7.0 0.00 0.01 0.00 65 1021.4
20260505014644 61 313 2.0 7.0 0.00 0.01 0.00 66 1021.3
20260505013642 61 291 1.0 6.0 0.00 0.01 0.00 67 1021.4
20260505013142 60 269 1.0 10.0 0.00 0.01 0.00 67 1021.5
20260505012642 60 269 2.0 10.0 0.00 0.01 0.00 66 1021.6
20260505012143 60 208 1.0 6.0 0.00 0.01 0.00 67 1021.6
20260505011642 60 194 1.0 7.0 0.00 0.01 0.00 68 1021.6
20260505011142 60 251 1.0 7.0 0.00 0.01 0.00 68 1021.5
20260505010642 60 253 2.0 7.0 0.00 0.01 0.00 69 1021.6
20260505010149 60 232 2.0 7.0 0.00 0.01 0.00 70 1021.4
20260505010143 60 258 2.0 7.0 0.00 0.01 0.00 69 1021.5
20260505005144 60 254 2.0 7.0 0.00 0.01 0.00 70 1021.4
20260505004642 60 262 1.0 7.0 0.00 0.01 0.00 71 1021.3
20260505004142 60 243 1.0 9.0 0.00 0.01 0.00 72 1021.3
20260505003643 59 207 1.0 9.0 0.00 0.01 0.00 72 1021.2
20260505003143 59 274 1.0 7.0 0.00 0.01 0.00 72 1021.2
20260505002642 59 277 1.0 9.0 0.00 0.01 0.00 72 1021.2
20260505002143 60 329 1.0 10.0 0.00 0.01 0.00 72 1021.1
20260505001649 60 265 1.0 8.0 0.00 0.01 0.00 72 1021.0
20260505001644 60 230 1.0 10.0 0.00 0.01 0.00 72 1021.0
20260505001309 60 185 1.0 8.0 0.00 0.01 0.00 72 1021.0
20260505000151 60 245 2.0 9.0 0.00 0.01 0.00 74 1020.8
20260505000143 60 251 2.0 13.0 0.00 0.01 0.00 72 1020.9
20260504235642 60 248 2.0 13.0 0.00 0.01 0.00 73 1020.9
20260504235310 59 313 2.0 7.0 0.00 0.01 0.00 75 1020.8
20260504234144 59 272 2.0 6.0 0.00 0.01 0.00 76 1020.8
20260504233639 59 230 2.0 6.0 0.00 0.01 0.00 76 1020.8
20260504233145 59 266 1.0 7.0 0.00 0.01 0.00 77 1020.7
20260504233139 59 2 1.0 5.0 0.00 0.01 0.00 77 1020.8
20260504232141 58 269 2.0 7.0 0.00 0.01 0.00 78 1020.7
20260504231639 58 232 1.0 6.0 0.00 0.01 0.00 78 1020.7
20260504231136 58 276 1.0 6.0 0.00 0.01 0.00 78 1020.5
20260504230637 58 278 1.0 4.0 0.00 0.01 0.00 79 1020.4
20260504230136 58 254 1.0 6.0 0.00 0.01 0.00 80 1020.4
20260504225640 58 268 2.0 9.0 0.00 0.01 0.00 81 1020.3
20260504225634 58 239 1.0 6.0 0.00 0.01 0.00 80 1020.3
20260504224636 58 265 2.0 12.0 0.00 0.01 0.00 81 1020.3
20260504224139 58 326 3.0 9.0 0.00 0.01 0.00 81 1020.2
20260504224133 58 293 3.0 12.0 0.00 0.01 0.00 81 1020.3
20260504223132 58 277 2.0 9.0 0.00 0.01 0.00 82 1020.1
20260504222629 57 302 3.0 15.0 0.00 0.01 0.00 82 1020.0
20260504222301 57 329 2.0 7.0 0.00 0.01 0.00 84 1019.7
20260504221758 57 288 2.0 5.0 0.00 0.01 0.00 84 1019.6
20260504220629 57 322 2.0 7.0 0.00 0.01 0.00 84 1019.5
20260504220130 56 315 2.0 7.0 0.00 0.01 0.00 84 1019.5
20260504215632 57 302 2.0 6.0 0.00 0.01 0.00 84 1019.4
20260504215130 57 294 2.0 7.0 0.00 0.01 0.00 85 1019.3
20260504214630 57 293 2.0 9.0 0.00 0.01 0.00 85 1019.2
20260504214130 57 287 3.0 9.0 0.00 0.01 0.00 85 1019.1
20260504213627 57 312 3.0 9.0 0.00 0.01 0.00 85 1019.0
20260504213129 57 296 2.0 9.0 0.00 0.01 0.00 86 1018.9
20260504212629 56 305 2.0 9.0 0.00 0.01 0.00 86 1018.9
20260504212128 56 321 2.0 8.0 0.00 0.01 0.00 85 1018.8
20260504211628 56 318 2.0 8.0 0.00 0.01 0.00 85 1018.6
20260504211127 57 308 3.0 10.0 0.00 0.01 0.00 85 1018.6
20260504210633 57 312 2.0 8.0 0.00 0.01 0.00 85 1018.4
20260504210627 57 312 3.0 10.0 0.00 0.01 0.00 85 1018.5
20260504205631 57 304 2.0 8.0 0.00 0.01 0.00 84 1018.4
20260504205627 57 304 2.0 8.0 0.00 0.01 0.00 84 1018.4
20260504204627 57 267 2.0 11.0 0.00 0.01 0.00 84 1018.3
20260504204129 57 310 3.0 11.0 0.00 0.01 0.00 84 1018.3
20260504203628 57 297 2.0 9.0 0.00 0.01 0.00 84 1018.3
20260504203127 57 344 2.0 8.0 0.00 0.01 0.00 84 1018.1
20260504202632 57 299 3.0 12.0 0.00 0.01 0.00 85 1017.8
20260504202627 57 297 2.0 10.0 0.00 0.01 0.00 85 1018.0
20260504202128 57 303 2.0 10.0 0.00 0.01 0.00 85 1017.9
20260504201127 57 299 4.0 12.0 0.00 0.01 0.00 85 1017.8
20260504200624 57 320 3.0 12.0 0.00 0.01 0.00 86 1017.8
20260504200125 57 319 3.0 11.0 0.00 0.01 0.00 86 1017.7
20260504195623 57 298 3.0 10.0 0.00 0.01 0.00 86 1017.6
20260504195131 57 303 3.0 8.0 0.00 0.01 0.00 85 1017.4
20260504195122 57 293 2.0 10.0 0.00 0.01 0.00 85 1017.5
20260504194622 57 298 3.0 8.0 0.00 0.01 0.00 85 1017.5
20260504194248 57 297 3.0 11.0 0.00 0.01 0.00 85 1017.4
20260504193122 57 311 4.0 12.0 0.00 0.01 0.00 84 1017.3
20260504192620 57 317 3.0 12.0 0.00 0.01 0.00 84 1017.3
20260504192119 57 314 4.0 13.0 0.00 0.01 0.00 83 1017.2
20260504191619 57 302 4.0 13.0 0.00 0.01 0.00 83 1017.2
20260504191117 57 285 3.0 12.0 0.00 0.01 0.00 82 1017.1
20260504190617 57 293 3.0 10.0 0.00 0.01 0.00 82 1017.0
20260504190117 57 331 2.0 10.0 0.00 0.01 0.00 82 1017.0
20260504185617 57 318 2.0 5.0 0.00 0.01 0.00 82 1016.9
20260504185117 57 322 2.0 11.0 0.00 0.01 0.00 82 1016.9
20260504184625 57 285 3.0 10.0 0.00 0.01 0.00 82 1016.7
20260504184619 57 324 3.0 11.0 0.00 0.01 0.00 82 1016.9
20260504184114 57 197 4.0 11.0 0.00 0.01 0.00 82 1016.6
20260504183115 57 307 3.0 11.0 0.00 0.01 0.00 82 1016.6
20260504182614 57 306 2.0 7.0 0.00 0.01 0.00 82 1016.5
20260504182113 57 305 3.0 8.0 0.00 0.01 0.00 82 1016.4
20260504181614 57 308 2.0 8.0 0.00 0.01 0.00 81 1016.4
20260504181114 57 307 3.0 11.0 0.00 0.01 0.00 81 1016.3
20260504180617 57 294 4.0 12.0 0.00 0.01 0.00 81 1016.2
20260504180611 57 310 4.0 11.0 0.00 0.01 0.00 81 1016.2
20260504175611 57 317 4.0 12.0 0.00 0.01 0.00 81 1016.1
20260504175113 57 303 3.0 9.0 0.00 0.01 0.00 81 1016.1
20260504174612 58 317 3.0 9.0 0.00 0.01 0.00 80 1016.0
20260504174111 58 315 4.0 13.0 0.00 0.01 0.00 80 1016.0
20260504173611 58 309 4.0 13.0 0.00 0.01 0.00 80 1016.0
20260504173114 58 302 3.0 10.0 0.00 0.01 0.00 80 1016.1
20260504172613 58 295 3.0 10.0 0.00 0.01 0.00 79 1016.0
20260504172111 58 301 3.0 12.0 0.00 0.01 0.00 79 1016.0
20260504171611 58 309 4.0 12.0 0.00 0.01 0.00 79 1016.0
20260504171112 58 291 5.0 13.0 0.00 0.01 0.00 79 1015.9
20260504170612 58 301 5.0 13.0 0.00 0.01 0.00 79 1015.9
20260504170111 58 310 5.0 12.0 0.00 0.01 0.00 78 1015.9
20260504151113 59 331 6.0 14.0 0.00 0.01 0.00 76 1015.1
20260504151107 59 318 5.0 14.0 0.00 0.01 0.00 76 1015.1
20260504150104 59 300 6.0 12.0 0.00 0.01 0.00 76 1015.1